Weather History for Las Vegas, NV

Change the Weather History Date:

Monday, October 21, 2013

  Actual Average Record
Temperature  
Mean Temperature 69 °F 67 °F  
Max Temperature 82 °F 78 °F 94 °F (2003)
Min Temperature 56 °F 57 °F 32 °F (1949)
Degree Days  
Heating Degree Days 0 1  
Month to date heating degree days 19 11  
Since 1 July heating degree days 19 12  
Cooling Degree Days 4 4  
Month to date cooling degree days 67 151  
Year to date cooling degree days 3725 3528  
Growing Degree Days 18 (Base 50)    
Moisture  
Dew Point 21 °F    
Average Humidity 17    
Maximum Humidity 23    
Minimum Humidity 11    
Precipitation  
Precipitation 0.00 in 0.01 in 0.25 in (1969)
Month to date precipitation T 0.16  
Year to date precipitation 1.54 3.22  
Snow  
Snow 0.00 in 0.00 in 0.00 in ()
Month to date snowfall 0.0 0.0  
Since 1 July snowfall 0.0 0.0  
Since 1 September snowfall 0.0 0.0  
Snow Depth 0.00 in    
Sea Level Pressure  
Sea Level Pressure 29.95 in    
Wind  
Wind Speed 6 mph (SSW)    
Max Wind Speed 12 mph    
Max Gust Speed 13 mph    
Visibility 10 miles    
Events      
T = Trace of Precipitation, MM = Missing Value Source: NWS Daily Summary

Daily Weather History Graph

Daily Weather History Graph

Search for Another Location

Airport:

Trip Planner

Search our weather history database for the weather conditions in past years. The results will help you decide how hot, cold, wet, or windy it might be!

Date:

Astronomy

Oct. 21, 2013 Rise Set
Actual Time 6:53 AM PDT 5:56 PM PDT
Civil Twilight 6:27 AM PDT 6:22 PM PDT
Nautical Twilight 5:57 AM PDT 6:52 PM PDT
Astronomical Twilight 5:27 AM PDT 7:22 PM PDT
Moon 7:57 PM PDT (10/21) 9:27 AM PDT (10/21)
Length of Visible Light 11h 55m
Length of Day
11h 03m
Waning Gibbous, 92% of the Moon is Illuminated
Oct 21
Waning Gibbous
Oct 26
Last Quarter
Nov 3
New
Nov 9
First Quarter
Nov 17
Full

Hourly Weather History & Observations

Time (PDT) Temp. Dew Point Humidity Pressure Visibility Wind Dir Wind Speed Gust Speed Precip Events Conditions
12:56 AM 61.0 °F 21.0 °F 21% 29.88 in 10.0 mi WSW 4.6 mph - N/A   Clear
1:56 AM 62.1 °F 21.0 °F 21% 29.90 in 10.0 mi SSW 6.9 mph - N/A   Clear
2:56 AM 61.0 °F 19.9 °F 21% 29.90 in 10.0 mi SW 9.2 mph - N/A   Clear
3:56 AM 57.9 °F 19.0 °F 22% 29.90 in 10.0 mi South 10.4 mph - N/A   Clear
4:56 AM 57.0 °F 17.1 °F 21% 29.92 in 10.0 mi SSW 11.5 mph - N/A   Clear
5:56 AM 57.9 °F 19.0 °F 22% 29.94 in 10.0 mi SW 8.1 mph - N/A   Clear
6:56 AM 57.0 °F 19.0 °F 23% 29.96 in 10.0 mi SSW 9.2 mph - N/A   Partly Cloudy
7:56 AM 60.1 °F 21.0 °F 22% 29.99 in 10.0 mi South 8.1 mph - N/A   Partly Cloudy
8:56 AM 66.0 °F 19.0 °F 17% 30.01 in 10.0 mi SSW 6.9 mph - N/A   Partly Cloudy
9:56 AM 71.1 °F 18.0 °F 13% 30.01 in 10.0 mi SSW 4.6 mph - N/A   Partly Cloudy
10:56 AM 73.9 °F 19.9 °F 13% 30.01 in 10.0 mi Calm Calm - N/A   Partly Cloudy
11:56 AM 75.9 °F 19.9 °F 12% 30.00 in 10.0 mi Calm Calm - N/A   Partly Cloudy
12:56 PM 79.0 °F 21.0 °F 12% 29.97 in 10.0 mi Variable 3.5 mph - N/A   Partly Cloudy
1:56 PM 80.1 °F 21.0 °F 11% 29.94 in 10.0 mi Variable 3.5 mph - N/A   Partly Cloudy
2:56 PM 80.1 °F 21.0 °F 11% 29.93 in 10.0 mi South 4.6 mph - N/A   Partly Cloudy
3:56 PM 81.0 °F 21.0 °F 11% 29.92 in 10.0 mi SSE 4.6 mph - N/A   Partly Cloudy
4:56 PM 81.0 °F 21.0 °F 11% 29.92 in 10.0 mi Calm Calm - N/A   Partly Cloudy
5:56 PM 79.0 °F 21.0 °F 12% 29.93 in 10.0 mi Calm Calm - N/A   Partly Cloudy
6:56 PM 75.9 °F 23.0 °F 14% 29.94 in 10.0 mi SSW 5.8 mph - N/A   Clear
7:56 PM 72.0 °F 24.1 °F 17% 29.95 in 10.0 mi WSW 8.1 mph - N/A   Clear
8:56 PM 68.0 °F 25.0 °F 20% 29.96 in 10.0 mi WSW 8.1 mph - N/A   Clear
9:56 PM 68.0 °F 24.1 °F 19% 29.97 in 10.0 mi SSW 8.1 mph - N/A   Clear
10:56 PM 64.9 °F 23.0 °F 20% 29.98 in 10.0 mi SSW 8.1 mph - N/A   Clear
11:56 PM 63.0 °F 23.0 °F 22% 29.98 in 10.0 mi SSW 9.2 mph - N/A   Clear